Regional Weather Roundup
Issued by NWS

Home | Current Version | Previous Version | Graphics & Text | Print | Product List | Glossary On
Versions: 1 2 3 4 5 6 7 8 9 10 11 12 13 14 15 16 17 18 19 20 21 22 23 24 25 26 27 28 29 30 31 32 33 34 35 36 37 38 39 40 41 42 43 44 45 46 47 48 49 50
000
ASUS43 KMPX 220510
RWRMN
WEATHER ROUNDUP FOR MINNESOTA
NATIONAL WEATHER SERVICE TWIN CITIES/CHANHASSEN MN
1200 AM CDT WED OCT 22 2014


NOTE: "FAIR" INDICATES FEW OR NO CLOUDS BELOW 12,000 FEET WITH NO
SIGNIFICANT WEATHER AND/OR OBSTRUCTIONS TO VISIBILITY. N/A MEANS
CURRENT SKY AND/OR WEATHER CONDITIONS ARE NOT AVAILABLE.

MNZ060>063-068>070-220600-
   Twin Cities Metro

CITY           SKY/WX    TMP DP  RH WIND       PRES   REMARKS
TWIN CITIES    CLEAR     46  37  71 SE10      30.18S
ST PAUL        CLEAR     46  38  73 SE10      30.19F
CRYSTAL        CLEAR     50  38  63 SE12      30.16S
BLAINE         CLEAR     48  39  71 SE8       30.17S
LAKEVILLE      CLEAR     41  37  87 SE3       30.18S
EDEN PRAIRIE   CLEAR     47  38  71 SE12      30.15F
SOUTH ST PAUL  CLEAR     47  37  69 SE5       30.18S
LAKE ELMO      FAIR      45  37  76 SE5       30.19F
$$
MNZ001>005-007-008-013>017-022>024-027-028-220600-
   Northwest Minnesota

CITY           SKY/WX    TMP DP  RH WIND       PRES   REMARKS
BEMIDJI        FAIR      47  38  73 SE14      30.04S
HALLOCK        PTCLDY    54  41  62 S20G25    29.85S
ROSEAU         CLEAR     52  41  66 S18G25    29.91F
WARROAD        CLEAR     50  41  71 S15G21    29.94F
THIEF RVR FALL CLEAR     52  39  62 SE14G24   29.92F
CROOKSTON      CLEAR     54  41  62 S24G30    29.90F
FOSSTON        CLEAR     50  37  62 SE16G24   29.96F
DETROIT LAKES  CLEAR     48  41  76 SE15G22   30.00F
MOORHEAD       FAIR      57  43  58 SE28G35   29.93S
PARK RAPIDS    CLEAR     46  38  73 SE13      30.05S
MAHNOMEN       FAIR      52  40  63 SE17G25   29.96F
$$
MNZ006-009>011-018-025>026-220600-
   North Central Minnesota

CITY           SKY/WX    TMP DP  RH WIND       PRES   REMARKS
BAUDETTE       CLEAR     44  36  73 SE10      30.00S
FLAG ISLAND    CLEAR     46  39  76 S26       29.95S
INTL FALLS     CLEAR     39  34  82 SE10      30.08F
WASKISH        CLEAR     46  37  71 SE17G24   30.01F
BIG FORK       CLEAR     41  36  81 SE7       30.11S
LONGVILLE      CLEAR     45  37  76 SE8       30.09S
GRAND RAPIDS   CLEAR     37  34  87 SE7       30.13S
CRANE LAKE     CLEAR     34  34 100 CALM      30.16S
ORR            CLEAR     36  32  87 SE7       30.11S
COOK           CLEAR     37  36  93 SE8       30.15S
WALKER         FAIR      47  38  69 SE14G21   30.06F
$$
MNZ012-019>021-037-220600-
   Northeast Minnesota

CITY           SKY/WX    TMP DP  RH WIND       PRES   REMARKS
DULUTH         CLEAR     37  35  92 SE7       30.19F
ELY            CLEAR     37  36  93 SE8       30.18F
HIBBING        CLEAR     35  33  92 SE8       30.16F WCI  29
EVELETH        CLEAR     36  36 100 SE5       30.18F
DULUTH HARBOR  CLEAR     43  37  81 CALM      30.22F
TWO HARBORS    CLEAR     39  28  65 NE3       30.21F
SILVER BAY     PTCLDY    43  39  87 CALM      30.22S
GRAND MARAIS     N/A     44  38  79 E8        30.27S
G MARAIS ARPRT CLOUDY    36  32  87 SE6       30.24S
$$
MNZ029>031-032-039>041-046>048-054>057-064-220600-
   West Central Minnesota

CITY           SKY/WX    TMP DP  RH WIND       PRES   REMARKS
FERGUS FALLS   CLEAR     54  37  54 SE21G28   29.98F
WHEATON        CLEAR     52  39  62 SE18      29.97F
MORRIS         CLEAR     52  41  66 SE18      30.00F
ALEXANDRIA     CLEAR     48  40  73 SE14      30.06S
ELBOW LAKE     FAIR      52  40  64 SE18      30.00S
WADENA         CLEAR     46  37  71 SE10      30.04F
GLENWOOD       CLEAR     46  41  81 SE13      30.06S
APPLETON       CLEAR     55  39  54 SE16G23   30.01S
BENSON         CLEAR     52  41  66 S15G21    30.03F
ORTONVILLE     CLEAR     52  39  62 SE15      29.98S
MADISON        CLEAR     55  43  62 SE13      30.01S
WILLMAR        FAIR      50  39  66 SE16      30.09S
$$
MNZ033>034-036-042>043-049>051-058-059-220600-
   Central Minnesota

CITY           SKY/WX    TMP DP  RH WIND       PRES   REMARKS
ST CLOUD       CLEAR     49  38  65 SE12      30.13S
SAUK CENTRE    FAIR      47  40  74 SE12      30.09R
PAYNESVILLE    CLEAR     47  39  74 E12       30.10S
AITKIN         CLEAR     46  37  71 SE7       30.12S
PINE RIVER     CLEAR     46  39  76 SE10      30.12S
BRAINERD       CLEAR     46  38  73 SE10      30.11F
STAPLES        CLEAR     46  37  71 SE13G21   30.07S
LONG PRAIRIE   FAIR      45  37  76 SE12      30.08S
LITTLE FALLS   CLEAR     45  36  70 SE9       30.10F
LITCHFIELD     CLEAR     48  41  76 SE10      30.11F
BUFFALO        CLEAR     48  38  69 SE8       30.15S
MAPLE LAKE     CLEAR     48  41  76 SE7       30.14S
$$
MNZ037-044-045-052-053-220600-
   East Central Minnesota

CITY           SKY/WX    TMP DP  RH WIND       PRES   REMARKS
PRINCETON      CLEAR     45  39  81 SE7       30.15F
MORA           CLEAR     41  34  75 SE5       30.18F
CAMBRIDGE      CLEAR     46  36  66 SE5       30.15S
RUSH CITY      PTCLDY    41  35  79 E3        30.18S
MOOSE LAKE     CLEAR     34  34 100 CALM      30.16F
HINCKLEY       FAIR      41  36  81 E5        30.18S
CLOQUET        CLEAR     37  36  93 E5        30.18F
MCGREGOR       CLEAR     37  36  93 SE7       30.15F
$$
MNZ071>073-080-081-089-090-097-098-220600-
   Southwest Minnesota

CITY           SKY/WX    TMP DP  RH WIND       PRES   REMARKS
MONTEVIDEO     CLEAR     52  41  66 MISG      30.04F
GRANITE FALLS  CLEAR     51  40  68 SE12      30.07S
CANBY          CLEAR     53  43  69 SE8       30.02S
MARSHALL       CLEAR     54  39  58 S18       30.03F
REDWOOD FALLS  CLEAR     50  40  68 SE15      30.08S
OLIVIA         CLEAR     50  37  62 SE12      30.08S
PIPESTONE      CLEAR     52  43  71 S15G21    30.03F
WINDOM         CLEAR     50  41  71 SE15      30.10S
WORTHINGTON    CLEAR     52  39  62 S16       30.09S
JACKSON        CLEAR     50  37  62 SE17      30.11F
TRACY          CLEAR     53  42  66 S15G23    30.05S
SLAYTON        CLEAR     50  41  71 SE14      30.07S
$$
MNZ065>067-074>077-082>085-091>093-220600-
   South Central Minnesota

CITY           SKY/WX    TMP DP  RH WIND       PRES   REMARKS
MANKATO        CLEAR     46  36  66 SE16      30.14S
NEW ULM        CLEAR     48  39  71 SE10      30.11F
ST JAMES       CLEAR     50  39  66 SE14      30.13S
FAIRMONT       CLEAR     48  36  61 SE15      30.13S
GLENCOE        CLEAR     48  41  77 SE9       30.13S
FARIBAULT      CLEAR     46  37  71 SE10      30.18S
OWATONNA       CLEAR     46  37  71 SE8       30.18R
WASECA         CLEAR     43  34  70 SE9       30.18S
ALBERT LEA     CLEAR     46  37  71 SE10G16   30.18R
$$
MNZ078>079-086>088-094>096-220600-
   Southeast Minnesota

CITY           SKY/WX    TMP DP  RH WIND       PRES   REMARKS
ROCHESTER      FAIR      41  36  82 SE8       30.22R
RED WING       CLEAR     46  37  71 SE8       30.21R
STANTON        CLEAR     46  37  72 SE10      30.17F
DODGE CENTER   PTCLDY    43  37  81 SE14      30.19S
WINONA         CLEAR     41  36  81 SE7       30.25S
AUSTIN         CLEAR     43  37  81 SE8       30.19S
PRESTON        CLEAR     40  35  82 SE8       30.23S
$$
ABBREVIATIONS USED IN REMARKS
   TC - TEMPERATURES IN CELSIUS
  WCI - WIND CHILL INDEX
   HX - HEAT INDEX
  VSB - VISIBILITY
$$



USA.gov is the U.S. government's official web portal to all federal, state and local government web resources and services.